User: anonymous   Login
Location: Unspecified
(0.0000°N, 0.0000°E)
Time: 02:50:34
(UTC+00:00)
Language:

OBJECT BW - Orbit

View from above orbital plane
View from above orbital plane
View from above satellite
View from above satellite

Ground track
Ground track

The orbit data is extracted from the following two-line orbital elements,

1 42016U 17008BW  17147.54129739 +.00001840 +00000-0 +81592-4 0  9991
2 42016 097.4969 209.0349 0005055 300.5249 059.5488 15.22873539015329
Epoch (UTC): 27 May 2017 12:59:28
Eccentricity: 0.0005055
inclination: 97.4969°
perigee height: 494 km
apogee height: 500 km
right ascension of ascending node: 209.0349°
argument of perigee: 300.5249°
revolutions per day: 15.22873539
mean anomaly at epoch: 59.5488°
orbit number at epoch: 1532

The dashed part of the orbit path shows where the satellite is in the earth's shadow,  

DLR